Roda de Ter - l'Esquerda





Hora UTC 23:50
Temperatura 7.4 ºC
Humitat 87.0 %
Pressió 1027.8 hPa
Pluja 0.0 mm
Velocitat vent 1.6 km/h
Direcció vent ENE

Dades diàries 2020-04-07



Hora UTC (hivern +1h; estiu +2h)
Temperatura (ºC) Humitat (%) Pressió (hPa) Velocitat vent (km/h) Precipitació (mm)
Hora UTC Aire Humitat Pressió Vel. Dir. Vel. Max Dir. Intent. màx 5 min.
00:05 7.5 81.0 1027.2 0.0 SSW 0.0 0.0
00:10 7.5 80.0 1027.1 0.0 SSW 3.2 0.0
00:15 7.4 78.0 1027.3 1.6 SSW 3.2 0.0
00:20 7.5 78.0 1027.2 1.6 SSW 4.8 0.0
00:25 7.5 79.0 1027.2 1.6 SSW 4.8 0.0
00:30 7.5 79.0 1027.1 1.6 SSW 3.2 0.0
00:35 7.3 80.0 1027.3 0.0 SSW 3.2 0.0
00:40 7.2 81.0 1027.2 1.6 SSW 3.2 0.0
00:45 7.1 82.0 1027.1 1.6 SSW 1.6 0.0
00:50 7.1 82.0 1027.1 0.0 SSW 1.6 0.0
00:55 7.2 81.0 1027.2 1.6 SSW 1.6 0.0
01:00 7.1 82.0 1027.2 1.6 SSW 3.2 0.0
01:05 6.9 84.0 1027.1 3.2 SSW 3.2 0.0
01:10 6.8 84.0 1027.0 3.2 SSW 6.4 0.0
01:15 6.8 85.0 1027.0 0.0 SSW 6.4 0.0
01:20 6.8 85.0 1027.0 1.6 N 4.8 0.0
01:25 6.8 85.0 1026.8 1.6 N 3.2 0.0
01:30 6.8 85.0 1026.9 0.0 N 3.2 0.0
01:35 6.7 85.0 1026.9 1.6 N 1.6 0.0
01:40 6.4 85.0 1026.8 3.2 N 3.2 0.0
01:45 6.3 85.0 1026.9 1.6 WSW 3.2 0.0
01:50 6.2 85.0 1026.8 1.6 WSW 3.2 0.0
01:55 6.2 84.0 1026.8 1.6 WSW 3.2 0.0
02:00 6.3 84.0 1026.9 0.0 WSW 3.2 0.0
02:05 6.3 83.0 1026.8 1.6 WSW 3.2 0.0
02:10 6.3 84.0 1026.8 1.6 WSW 3.2 0.0
02:15 6.3 84.0 1026.8 0.0 WSW 3.2 0.0
02:20 6.3 84.0 1026.8 3.2 WSW 3.2 0.0
02:25 6.2 85.0 1026.7 1.6 WSW 3.2 0.0
02:30 6.3 85.0 1026.8 1.6 WSW 3.2 0.0
02:35 6.2 85.0 1026.8 1.6 WSW 3.2 0.0
02:40 6.2 86.0 1026.7 3.2 N 3.2 0.0
02:45 6.1 86.0 1026.7 3.2 N 4.8 0.0
02:50 6.1 86.0 1026.7 1.6 N 4.8 0.0
02:55 6.1 87.0 1026.6 3.2 N 3.2 0.0
03:00 6.0 87.0 1026.6 0.0 N 3.2 0.0
03:05 6.1 87.0 1026.6 0.0 N 3.2 0.0
03:10 5.9 87.0 1026.4 0.0 N 1.6 0.0
03:15 5.8 87.0 1026.3 0.0 N 0.0 0.0
03:20 5.8 88.0 1026.4 0.0 N 0.0 0.0
03:25 5.6 87.0 1026.5 0.0 N 1.6 0.0
03:30 5.4 87.0 1026.5 1.6 N 1.6 0.0
03:35 5.0 87.0 1026.5 1.6 SSW 4.8 0.0
03:40 4.9 88.0 1026.6 0.0 SSW 4.8 0.0
03:45 4.9 88.0 1026.7 1.6 SSW 3.2 0.0
03:50 5.2 88.0 1026.7 1.6 SSW 3.2 0.0
03:55 5.3 88.0 1026.8 1.6 SSW 3.2 0.0
04:00 5.3 88.0 1026.7 1.6 SSW 3.2 0.0
04:05 5.3 88.0 1026.7 0.0 SSW 1.6 0.0
04:10 5.4 88.0 1026.7 0.0 SSW 1.6 0.0
04:15 5.4 88.0 1026.8 0.0 SSW 1.6 0.0
04:20 5.4 88.0 1026.7 1.6 SSW 3.2 0.0
04:25 5.4 89.0 1026.8 1.6 SSW 3.2 0.0
04:30 5.4 89.0 1026.8 1.6 SSW 3.2 0.0
04:35 5.5 89.0 1026.8 1.6 SSW 3.2 0.0
04:40 5.5 89.0 1026.9 1.6 SSW 1.6 0.0
04:45 5.5 89.0 1026.9 1.6 SSW 1.6 0.0
04:50 5.6 89.0 1026.8 1.6 SSW 1.6 0.0
04:55 5.6 89.0 1026.8 0.0 SSW 3.2 0.0
05:00 5.6 89.0 1026.7 0.0 SSW 1.6 0.0
05:05 5.6 89.0 1026.8 1.6 SSW 1.6 0.0
05:10 5.6 89.0 1026.8 0.0 SSW 1.6 0.0
05:15 5.4 89.0 1026.9 0.0 SSW 1.6 0.0
05:20 5.5 89.0 1026.8 1.6 SSW 1.6 0.0
05:25 5.4 89.0 1026.8 0.0 SSW 3.2 0.0
05:30 5.4 89.0 1026.8 0.0 SSW 3.2 0.0
05:35 5.5 89.0 1026.8 0.0 SSW 3.2 0.0
05:40 5.5 89.0 1026.9 0.0 SSW 3.2 0.0
05:45 5.5 89.0 1026.9 1.6 SSW 3.2 0.0
05:50 5.6 89.0 1027.1 0.0 SSW 3.2 0.0
05:55 5.6 89.0 1027.0 0.0 SSW 3.2 0.0
06:00 5.7 89.0 1027.0 0.0 SSW 1.6 0.0
06:05 5.9 89.0 1027.2 0.0 SSW 1.6 0.0
06:10 6.1 88.0 1027.2 0.0 SSW 1.6 0.0
06:15 6.3 88.0 1027.3 0.0 SSW 3.2 0.0
06:20 6.4 87.0 1027.3 0.0 SSW 3.2 0.0
06:25 6.6 87.0 1027.3 0.0 NNW 0.0 0.0
06:30 6.7 85.0 1027.3 0.0 NNW 1.6 0.0
06:35 6.8 86.0 1027.4 0.0 NNW 1.6 0.0
06:40 6.9 84.0 1027.4 1.6 NW 3.2 0.0
06:45 7.1 84.0 1027.4 0.0 NW 3.2 0.0
06:50 7.2 84.0 1027.5 1.6 NW 1.6 0.0
06:55 7.3 84.0 1027.4 1.6 NW 1.6 0.0
07:00 7.4 83.0 1027.5 1.6 NW 3.2 0.0
07:05 7.6 82.0 1027.6 1.6 NW 3.2 0.0
07:10 7.7 81.0 1027.6 1.6 NW 3.2 0.0
07:15 7.8 82.0 1027.6 0.0 NW 3.2 0.0
07:20 7.8 80.0 1027.6 0.0 NW 1.6 0.0
07:25 8.2 82.0 1027.6 0.0 NW 1.6 0.0
07:30 8.2 81.0 1027.6 0.0 NW 3.2 0.0
07:35 8.2 81.0 1027.7 1.6 NW 3.2 0.0
07:40 8.6 81.0 1027.8 0.0 NW 3.2 0.0
07:45 8.5 81.0 1027.8 1.6 NW 3.2 0.0
07:50 8.6 79.0 1027.8 0.0 NW 3.2 0.0
07:55 9.0 79.0 1027.8 1.6 NW 3.2 0.0
08:00 9.0 78.0 1027.7 0.0 NW 3.2 0.0
08:05 9.3 77.0 1027.7 1.6 W 3.2 0.0
08:10 9.4 77.0 1027.8 1.6 W 3.2 0.0
08:15 9.6 76.0 1027.8 1.6 W 3.2 0.0
08:20 9.8 73.0 1027.9 1.6 W 4.8 0.0
08:25 10.2 72.0 1027.8 1.6 W 4.8 0.0
08:30 10.4 70.0 1027.9 1.6 N 4.8 0.0
08:35 10.4 69.0 1027.9 1.6 N 4.8 0.0
08:40 10.3 67.0 1027.9 3.2 N 4.8 0.0
08:45 10.7 70.0 1028.0 1.6 N 4.8 0.0
08:50 11.0 70.0 1028.0 0.0 N 4.8 0.0
08:55 11.3 68.0 1028.0 1.6 N 3.2 0.0
09:00 11.5 67.0 1028.0 1.6 N 3.2 0.0
09:05 12.0 69.0 1028.1 1.6 N 3.2 0.0
09:10 12.1 65.0 1028.0 1.6 N 4.8 0.0
09:15 12.3 61.0 1028.1 1.6 N 4.8 0.0
09:20 12.9 61.0 1028.1 3.2 ESE 4.8 0.0
09:25 13.2 58.0 1028.0 1.6 ESE 4.8 0.0
09:30 13.6 57.0 1028.0 1.6 SE 4.8 0.0
09:35 13.6 57.0 1028.0 3.2 SSW 6.4 0.0
09:40 14.2 56.0 1027.9 3.2 SW 4.8 0.0
09:45 14.4 59.0 1027.9 3.2 SW 6.4 0.0
09:50 14.3 54.0 1028.0 3.2 S 6.4 0.0
09:55 14.8 58.0 1027.9 1.6 SSW 6.4 0.0
10:00 15.1 53.0 1027.9 6.4 WSW 11.3 0.0
10:05 15.4 53.0 1027.9 6.4 S 9.7 0.0
10:10 15.7 58.0 1027.8 3.2 NW 9.7 0.0
10:15 16.1 57.0 1027.8 3.2 SSW 9.7 0.0
10:20 16.2 56.0 1027.6 3.2 S 9.7 0.0
10:25 17.4 57.0 1027.6 4.8 WSW 9.7 0.0
10:30 17.3 58.0 1027.6 1.6 SW 9.7 0.0
10:35 17.3 58.0 1027.6 3.2 S 9.7 0.0
10:40 17.8 55.0 1027.5 6.4 SW 14.5 0.0
10:45 17.4 51.0 1027.5 3.2 SW 14.5 0.0
10:50 16.9 53.0 1027.4 6.4 SW 14.5 0.0
10:55 16.7 55.0 1027.5 6.4 SW 14.5 0.0
11:00 16.3 60.0 1027.5 11.3 WSW 12.9 0.0
11:05 17.1 56.0 1027.4 6.4 SW 14.5 0.0
11:10 17.0 55.0 1027.3 3.2 W 14.5 0.0
11:15 16.5 56.0 1027.3 3.2 WNW 11.3 0.0
11:20 16.9 60.0 1027.2 6.4 WSW 12.9 0.0
11:25 17.2 57.0 1027.3 3.2 WNW 12.9 0.0
11:30 16.9 56.0 1027.1 11.3 WSW 12.9 0.0
11:35 16.9 54.0 1027.1 4.8 SSW 12.9 0.0
11:40 17.1 54.0 1027.2 11.3 WSW 14.5 0.0
11:45 17.4 55.0 1027.2 3.2 WNW 14.5 0.0
11:50 17.3 52.0 1027.0 4.8 SW 14.5 0.0
11:55 17.1 48.0 1027.1 3.2 S 14.5 0.0
12:00 17.1 51.0 1027.1 9.7 W 11.3 0.0
12:05 17.2 58.0 1027.0 3.2 WSW 9.7 0.0
12:10 17.2 52.0 1027.1 1.6 WNW 6.4 0.0
12:15 17.2 53.0 1027.0 3.2 WNW 6.4 0.0
12:20 17.2 55.0 1027.0 6.4 WNW 9.7 0.0
12:25 17.1 55.0 1027.0 3.2 NW 11.3 0.0
12:30 16.7 55.0 1026.9 1.6 W 11.3 0.0
12:35 0.0
12:40 17.2 58.0 1026.7 1.6 WNW 9.7 0.0
12:45 17.2 58.0 1026.7 6.4 W 9.7 0.0
12:50 17.1 56.0 1026.7 1.6 NW 8.0 0.0
12:55 18.1 56.0 1026.7 4.8 NW 8.0 0.0
13:00 18.3 55.0 1026.6 3.2 W 12.9 0.0
13:05 18.6 55.0 1026.6 8.0 WSW 16.1 0.0
13:10 18.4 54.0 1026.5 3.2 W 16.1 0.0
13:15 18.7 55.0 1026.4 6.4 W 12.9 0.0
13:20 18.8 56.0 1026.3 11.3 NW 17.7 0.0
13:25 19.1 56.0 1026.3 1.6 W 17.7 0.0
13:30 18.5 55.0 1026.3 9.7 W 12.9 0.0
13:35 0.0
13:40 17.9 58.0 1026.4 9.7 W 16.1 0.0
13:45 18.4 58.0 1026.3 6.4 SW 19.3 0.0
13:50 18.2 58.0 1026.2 11.3 WSW 19.3 0.0
13:55 17.6 58.0 1026.3 4.8 W 16.1 0.0
14:00 17.3 60.0 1026.2 4.8 WSW 16.1 0.0
14:05 17.6 59.0 1026.3 6.4 WSW 14.5 0.0
14:10 17.3 59.0 1026.2 6.4 WSW 14.5 0.0
14:15 17.6 60.0 1026.1 11.3 SSW 12.9 0.0
14:20 17.3 58.0 1026.2 4.8 WSW 12.9 0.0
14:25 17.1 59.0 1026.2 6.4 W 12.9 0.0
14:30 17.1 61.0 1026.1 4.8 WNW 14.5 0.0
14:35 0.0
14:40 16.2 61.0 1026.2 1.6 W 16.1 0.0
14:45 16.1 61.0 1026.2 6.4 NW 16.1 0.0
14:50 15.9 61.0 1026.2 11.3 W 14.5 0.0
14:55 15.6 60.0 1026.3 6.4 W 17.7 0.0
15:00 15.5 62.0 1026.2 4.8 W 17.7 0.0
15:05 15.4 64.0 1026.1 1.6 W 16.1 0.0
15:10 15.5 64.0 1026.2 4.8 WNW 12.9 0.0
15:15 15.7 64.0 1026.1 8.0 NW 12.9 0.0
15:20 15.6 63.0 1026.0 8.0 N 12.9 0.0
15:25 15.7 64.0 1026.1 3.2 W 12.9 0.0
15:30 15.8 64.0 1026.0 6.4 W 14.5 0.0
15:35 0.0
15:40 16.1 63.0 1026.0 6.4 N 12.9 0.0
15:45 16.3 63.0 1025.8 3.2 N 14.5 0.0
15:50 16.5 61.0 1026.0 3.2 WSW 11.3 0.0
15:55 16.6 63.0 1025.9 6.4 W 11.3 0.0
16:00 16.3 63.0 1025.9 6.4 WNW 12.9 0.0
16:05 16.2 62.0 1026.0 3.2 W 12.9 0.0
16:10 16.1 63.0 1025.9 4.8 WNW 9.7 0.0
16:15 16.1 64.0 1026.0 6.4 W 16.1 0.0
16:20 16.1 65.0 1026.0 14.5 W 16.1 0.0
16:25 15.9 64.0 1026.0 8.0 WSW 14.5 0.0
16:30 15.8 64.0 1026.0 8.0 N 14.5 0.0
16:35 0.0
16:40 15.7 65.0 1026.0 12.9 N 14.5 0.0
16:45 15.6 65.0 1026.1 6.4 N 14.5 0.0
16:50 15.6 66.0 1026.1 3.2 N 12.9 0.0
16:55 15.6 66.0 1026.0 1.6 N 4.8 0.0
17:00 15.5 67.0 1026.1 3.2 W 8.0 0.0
17:05 15.4 67.0 1026.1 3.2 WSW 6.4 0.0
17:10 15.3 69.0 1026.0 6.4 N 8.0 0.0
17:15 15.1 70.0 1026.2 9.7 SW 11.3 0.0
17:20 14.9 69.0 1026.1 1.6 WSW 9.7 0.0
17:25 14.8 70.0 1026.1 6.4 SW 8.0 0.0
17:30 14.6 70.0 1026.2 3.2 SW 8.0 0.0
17:35 0.0
17:40 14.4 71.0 1026.3 4.8 WSW 8.0 0.0
17:45 14.3 70.0 1026.2 6.4 W 11.3 0.0
17:50 14.3 70.0 1026.2 3.2 WSW 11.3 0.0
17:55 14.3 70.0 1026.2 3.2 WSW 14.5 0.0
18:00 14.1 69.0 1026.3 6.4 WSW 14.5 0.0
18:05 13.8 70.0 1026.3 4.8 WSW 12.9 0.0
18:10 13.6 70.0 1026.5 3.2 SW 12.9 0.0
18:15 13.3 70.0 1026.4 4.8 SW 14.5 0.0
18:20 13.1 70.0 1026.6 4.8 SW 11.3 0.0
18:25 12.9 70.0 1026.5 8.0 SW 11.3 0.0
18:30 12.7 70.0 1026.6 6.4 SW 11.3 0.0
18:35 0.0
18:40 12.4 71.0 1026.8 0.0 SSW 8.0 0.0
18:45 12.3 71.0 1026.9 1.6 SSW 9.7 0.0
18:50 12.3 71.0 1026.9 6.4 S 9.7 0.0
18:55 12.3 71.0 1026.9 4.8 S 11.3 0.0
19:00 12.3 71.0 1027.0 3.2 S 11.3 0.0
19:05 12.3 71.0 1027.0 1.6 SSW 11.3 0.0
19:10 11.9 71.0 1027.0 1.6 SSW 8.0 0.0
19:15 11.7 72.0 1027.2 3.2 SW 8.0 0.0
19:20 11.4 72.0 1027.3 4.8 SW 8.0 0.0
19:25 11.4 72.0 1027.3 3.2 SW 6.4 0.0
19:30 11.3 72.0 1027.3 3.2 SW 6.4 0.0
19:35 11.3 72.0 1027.3 3.2 SW 6.4 0.0
19:40 11.3 72.0 1027.3 4.8 SSW 8.0 0.0
19:45 11.3 72.0 1027.4 1.6 WSW 8.0 0.0
19:50 11.2 72.0 1027.4 4.8 SW 8.0 0.0
19:55 11.3 72.0 1027.4 3.2 SW 8.0 0.0
20:00 11.4 72.0 1027.3 4.8 SSW 4.8 0.0
20:05 11.4 72.0 1027.4 0.0 SSW 4.8 0.0
20:10 11.3 72.0 1027.5 3.2 SSW 4.8 0.0
20:15 11.3 72.0 1027.5 3.2 SSW 4.8 0.0
20:20 11.4 72.0 1027.5 1.6 SSW 4.8 0.0
20:25 11.3 72.0 1027.5 1.6 SSW 4.8 0.0
20:30 11.2 72.0 1027.5 0.0 SSW 4.8 0.0
20:35 0.0
20:40 11.0 73.0 1027.5 3.2 S 4.8 0.0
20:45 10.9 73.0 1027.5 1.6 S 4.8 0.0
20:50 10.8 73.0 1027.6 4.8 S 4.8 0.0
20:55 10.7 74.0 1027.5 6.4 S 8.0 0.0
21:00 10.7 74.0 1027.6 3.2 S 8.0 0.0
21:05 10.6 74.0 1027.6 1.6 S 4.8 0.0
21:10 10.6 74.0 1027.7 4.8 S 6.4 0.0
21:15 10.6 74.0 1027.7 3.2 S 6.4 0.0
21:20 10.5 74.0 1027.7 3.2 S 4.8 0.0
21:25 10.4 75.0 1027.7 1.6 S 4.8 0.0
21:30 10.4 75.0 1027.7 1.6 S 3.2 0.0
21:30 10.4 75.0 1027.7 0.0 S 3.2 0.0
21:40 9.8 78.0 1027.7 1.6 S 3.2 0.0
21:45 10.0 77.0 1027.6 0.0 S 1.6 0.0
21:50 9.8 79.0 1027.7 0.0 S 3.2 0.0
21:55 9.6 79.0 1027.6 1.6 S 3.2 0.0
22:00 9.5 79.0 1027.6 4.8 NNE 4.8 0.0
22:05 9.1 80.0 1027.6 3.2 NNE 4.8 0.0
22:10 8.8 80.0 1027.7 1.6 NNE 4.8 0.0
22:15 8.8 82.0 1027.7 0.0 NNE 3.2 0.0
22:20 8.8 82.0 1027.8 0.0 NNE 1.6 0.0
22:25 8.9 82.0 1027.8 0.0 NNE 1.6 0.0
22:30 8.9 82.0 1027.8 0.0 NNE 1.6 0.0
22:35 8.9 82.0 1027.7 0.0 NNE 0.0 0.0
22:40 8.9 82.0 1027.8 1.6 NNE 3.2 0.0
22:45 8.7 82.0 1027.8 1.6 ENE 4.8 0.0
22:50 8.7 83.0 1027.8 1.6 ENE 4.8 0.0
22:55 8.3 83.0 1027.7 1.6 ENE 3.2 0.0
23:00 8.1 83.0 1027.7 0.0 ENE 3.2 0.0
23:05 7.9 84.0 1027.8 0.0 ENE 1.6 0.0
23:10 7.9 85.0 1027.8 1.6 ENE 3.2 0.0
23:15 7.9 86.0 1027.9 1.6 ENE 3.2 0.0
23:20 7.8 86.0 1027.9 0.0 ENE 3.2 0.0
23:25 7.8 86.0 1027.9 1.6 ENE 3.2 0.0
23:30 7.7 86.0 1027.8 1.6 ENE 3.2 0.0
23:35 0.0
23:40 7.6 87.0 1027.7 0.0 ENE 3.2 0.0
23:45 7.5 87.0 1027.7 0.0 ENE 3.2 0.0
23:50 7.4 87.0 1027.8 1.6 ENE 3.2 0.0
Màxima 19.1 89.0 1028.1 14.5 W 19.3 0.0
Mínima 4.9 48.0 1025.8
Total 0.0